Theta_e
319 319 319 320 321 323 324 324 322 323 324 318 318 320 320 324 325 327 330 332 334 338 341 341 343 343 342 340 338 338 341 343 343 337 336 341 344 344 340 334 332 326 318 316 318 321 320 316 320 323 326 327 324 320 315 319 328 329 330 331 332 333 333 334 334 334 334 334 334 335 335 335 334 334 334 333 334 333 332 328 315 307 308 309 309 313 320 317 315 318 318 318 317 315 313 312 312
319 319 319 320 321 323 325 324 321 320 320 316 318 320 320 324 323 324 326 328 333 339 342 343 344 344 343 343 341 341 344 347 348 348 343 341 345 345 340 334 332 327 320 316 321 331 328 317 319 324 327 327 324 320 315 316 323 329 331 331 332 334 333 334 334 334 334 335 335 335 335 335 335 334 334 332 333 334 335 329 314 307 308 309 310 312 317 317 316 318 318 317 315 314 312 312 312
319 319 320 320 321 323 324 324 321 317 316 315 317 321 322 322 322 322 324 327 335 341 343 343 344 344 343 342 342 342 345 348 348 347 343 343 347 344 338 335 333 328 322 317 321 336 337 319 318 325 326 327 325 319 315 314 319 329 332 331 333 334 334 335 335 335 335 336 335 335 335 335 334 333 332 331 331 334 336 331 316 309 309 309 312 313 315 316 317 317 316 315 314 313 312 312 313
319 319 319 320 322 323 324 324 321 318 316 315 316 321 322 322 322 322 323 326 335 340 341 341 342 346 344 342 344 343 347 351 347 346 345 346 347 343 338 335 333 329 322 322 328 339 341 322 318 325 326 327 325 319 315 313 318 330 332 331 334 334 335 336 335 335 335 336 335 334 334 333 333 331 330 329 331 333 334 331 318 309 309 310 315 317 316 315 315 316 315 315 313 313 312 313 313
319 319 319 321 323 324 324 323 322 319 317 317 317 321 323 322 322 322 322 325 333 337 337 337 340 346 345 346 346 346 350 351 347 345 347 346 345 341 336 333 332 330 323 327 335 341 340 323 319 325 327 328 325 319 313 313 323 331 331 332 335 335 336 336 335 336 335 335 334 333 334 333 331 329 327 325 327 328 327 324 314 309 309 311 317 318 316 315 314 315 314 314 313 313 312 313 313
319 320 320 321 322 322 323 321 319 319 319 321 320 321 322 322 323 323 322 325 331 334 335 335 336 340 344 349 348 349 350 351 349 346 348 345 343 340 333 331 331 330 325 327 335 341 338 322 319 325 326 328 325 316 311 317 329 332 332 334 335 335 336 336 335 335 335 334 334 334 334 333 329 326 324 320 317 316 315 314 311 310 308 312 321 320 316 315 314 314 313 313 313 313 313 314 316
319 320 321 321 322 322 322 319 319 320 321 323 322 322 322 323 323 323 322 323 327 331 334 334 334 334 342 348 348 348 344 348 350 347 347 343 340 336 330 330 331 329 324 325 335 340 335 319 319 325 325 327 322 313 316 324 331 332 334 336 335 336 336 335 335 334 334 333 333 332 330 326 322 319 316 313 310 309 309 310 310 310 308 312 324 326 322 316 314 314 312 313 313 313 315 316 319
319 321 321 322 323 323 322 320 321 322 321 322 322 322 322 324 323 323 322 323 323 326 329 332 334 333 341 345 347 349 344 346 348 348 346 341 337 332 328 331 331 329 322 325 336 338 328 318 320 324 325 325 317 314 323 329 332 334 336 336 335 335 335 335 335 333 332 329 327 324 321 317 314 311 309 309 308 308 308 310 310 310 308 310 319 325 322 316 313 313 313 314 314 315 317 319 320
319 320 321 322 323 321 321 320 321 323 322 321 322 322 322 323 322 323 322 323 322 322 326 330 334 335 342 344 347 350 346 346 346 346 344 339 335 329 329 331 332 329 322 327 337 338 325 317 321 323 326 321 316 323 330 332 334 335 335 335 335 335 335 335 333 330 327 324 320 316 314 311 308 308 308 308 308 308 309 310 310 309 309 309 313 317 317 314 314 314 314 315 316 317 318 320 320
320 321 321 322 321 319 318 320 321 322 321 321 322 322 322 322 322 323 322 323 323 323 327 333 337 337 341 344 351 351 346 346 346 346 342 338 335 330 331 332 333 328 323 330 337 340 328 316 322 323 325 318 319 330 333 334 335 335 336 336 336 336 335 333 329 325 321 317 314 312 310 308 307 308 308 308 308 309 309 310 310 310 309 310 311 314 314 315 316 316 316 316 317 317 318 319 319
321 321 321 321 319 317 317 319 321 322 321 321 322 321 321 322 321 322 322 322 323 325 331 337 340 339 342 345 352 349 345 346 347 346 341 338 336 333 334 335 335 330 326 333 337 340 330 317 323 325 322 317 323 333 333 336 336 335 337 336 336 335 333 329 325 321 316 313 310 309 308 307 308 308 308 308 309 309 310 310 310 310 309 310 312 314 315 316 317 318 318 317 317 317 318 319 319
321 321 320 321 319 319 320 320 321 323 322 321 322 321 321 322 322 322 322 323 325 326 331 338 339 340 343 345 352 347 344 347 347 345 342 339 337 336 337 336 336 331 326 334 338 340 334 323 324 326 321 316 326 334 333 335 336 336 336 334 335 333 330 326 321 317 313 310 309 308 307 308 308 308 309 308 309 310 310 310 310 310 310 311 312 314 316 317 318 318 319 319 319 318 318 318 319
321 321 321 320 320 321 321 321 322 323 322 322 322 321 321 321 322 322 323 326 326 327 331 337 340 341 343 348 352 347 345 347 347 345 343 342 341 340 341 340 338 335 330 336 340 339 337 331 329 326 318 320 331 334 334 335 335 336 334 334 334 331 328 322 317 314 311 309 307 308 308 307 308 308 308 309 310 311 312 311 310 310 310 311 313 315 317 318 319 319 320 320 319 319 318 318 319
320 321 321 320 321 322 321 321 321 321 321 322 322 320 321 322 322 322 324 326 326 330 335 340 343 342 344 348 351 349 347 346 346 345 344 344 343 342 343 342 340 339 337 339 339 338 338 335 334 326 319 329 336 334 334 335 335 334 333 333 332 329 325 319 316 313 309 308 308 308 308 307 308 308 308 309 310 312 313 312 310 310 311 311 312 314 317 318 319 320 319 319 320 319 319 318 318
319 321 321 321 321 321 321 321 322 320 321 323 321 319 322 326 325 324 327 325 329 336 337 342 342 343 345 343 346 352 348 345 346 345 344 344 344 343 343 342 340 339 339 339 339 338 336 336 335 326 324 335 336 335 335 335 334 333 334 333 331 329 323 318 315 311 309 308 308 308 308 308 308 308 308 309 310 312 314 312 311 310 311 311 311 312 313 315 316 317 317 318 319 319 319 318 318
318 321 320 320 319 319 320 321 322 320 321 321 319 319 323 330 330 329 331 327 332 338 339 343 342 344 346 344 348 350 347 344 346 345 345 344 344 343 342 341 340 339 339 338 338 337 336 336 335 328 330 337 336 336 336 335 334 333 334 333 331 328 322 318 313 309 309 309 309 309 309 309 309 309 309 309 310 312 314 313 311 311 311 312 311 311 311 312 313 314 315 316 317 318 319 318 318
317 319 319 319 318 319 321 321 321 320 320 320 319 320 321 329 334 334 333 330 333 337 341 345 344 344 346 348 348 345 344 344 346 345 345 344 343 343 342 341 340 339 338 338 336 336 336 336 336 332 333 337 337 337 337 336 335 333 335 333 332 328 322 317 312 309 310 310 311 310 313 314 313 311 309 310 310 311 313 313 311 310 311 312 312 312 311 311 311 312 313 313 314 316 315 316 316
317 318 318 318 320 320 321 322 322 321 321 319 319 321 321 324 332 335 333 334 336 335 340 346 346 345 344 347 347 342 340 343 346 345 345 344 344 343 342 341 339 339 338 337 336 336 336 335 336 334 333 337 337 337 337 338 335 334 335 335 333 327 322 316 311 312 313 313 315 316 320 322 322 320 316 313 310 311 312 313 312 310 311 311 312 312 311 311 311 311 312 312 312 312 314 321 323
317 319 318 319 321 321 323 323 321 321 319 320 321 321 323 322 326 333 330 330 335 332 335 343 347 348 345 345 346 343 340 342 345 345 345 345 345 343 342 341 339 338 337 337 335 335 335 335 335 334 334 336 336 337 337 338 336 335 336 336 334 327 322 319 314 319 321 320 323 324 325 326 328 330 328 323 319 316 313 312 312 311 311 311 312 312 312 312 312 312 312 312 313 315 322 329 331
318 319 319 320 321 322 323 323 321 321 320 320 322 320 324 323 323 331 328 325 331 328 328 336 340 347 348 346 346 344 340 343 345 346 346 345 345 343 342 341 339 338 336 337 335 333 335 335 336 335 335 335 336 337 337 338 337 337 337 335 334 328 327 326 323 327 328 324 324 326 329 329 330 333 333 332 332 329 323 320 317 315 314 312 313 314 314 313 313 315 313 314 320 325 329 331 330
318 318 319 320 321 322 322 322 320 320 321 320 322 320 322 323 322 329 328 323 327 327 326 329 327 339 348 345 345 345 342 344 345 346 346 345 344 342 342 340 339 338 336 336 334 333 335 335 335 336 334 334 335 336 337 337 337 337 337 335 334 331 330 329 327 327 325 323 325 326 329 330 331 334 335 335 336 335 333 331 329 326 324 322 322 325 326 324 326 328 325 325 330 332 333 333 332
317 318 319 321 321 321 321 321 320 319 319 320 321 320 321 322 324 327 327 323 324 327 328 329 326 336 347 343 344 345 344 345 345 346 346 345 344 342 342 340 339 337 334 334 335 334 335 335 336 335 334 334 335 336 336 336 337 336 336 335 333 333 332 329 325 322 321 324 327 328 330 332 333 334 335 335 334 334 334 334 333 332 332 331 331 336 335 334 336 336 335 335 336 336 336 335 334
317 318 319 320 320 321 321 321 320 319 318 320 320 320 322 323 324 325 326 324 324 329 330 330 331 338 345 343 342 342 344 346 345 346 346 344 343 342 342 340 339 335 331 334 336 335 335 336 336 335 333 335 335 333 334 336 336 336 335 334 333 333 332 330 324 320 324 328 330 331 333 334 334 334 334 334 333 333 333 333 333 333 334 334 334 338 337 336 338 337 336 337 337 338 337 337 336
316 317 318 319 320 319 321 320 319 319 318 320 319 320 323 322 323 324 326 325 325 331 329 328 333 338 343 344 342 341 344 346 345 346 345 344 343 343 341 339 336 332 332 334 335 335 335 335 335 335 333 334 334 332 333 335 335 336 334 333 333 330 329 329 325 323 327 330 331 333 334 334 335 335 335 334 333 334 334 334 334 333 334 334 333 337 338 337 337 336 336 336 337 337 337 336 336
315 316 318 318 318 319 319 319 319 319 319 319 319 320 321 322 323 324 328 325 325 332 330 331 335 339 343 344 344 342 345 345 345 345 344 344 343 342 341 337 334 333 334 334 335 336 335 335 335 335 334 333 333 332 334 335 335 336 334 334 333 326 325 327 325 325 329 331 332 334 334 335 335 335 334 333 333 334 334 334 334 334 334 333 333 334 336 336 336 335 335 335 336 336 336 335 335
315 315 318 318 318 318 318 319 318 318 318 318 318 320 319 321 325 326 328 325 327 333 332 334 338 341 344 346 345 342 345 345 344 345 344 343 342 342 340 336 334 336 337 336 335 336 335 335 335 335 334 332 331 333 335 335 335 335 334 334 329 323 325 326 326 329 331 332 333 333 334 334 334 335 334 333 333 334 334 334 334 334 333 333 333 333 333 333 334 335 334 335 336 336 336 334 334
316 315 317 317 318 317 317 318 318 318 318 318 317 318 319 323 326 325 325 326 332 334 333 337 341 344 346 347 346 344 344 345 344 344 343 343 342 342 340 335 336 339 339 337 336 336 335 334 335 335 333 331 331 333 334 335 335 334 334 331 325 325 327 325 328 331 331 332 332 332 333 334 334 334 334 333 333 334 334 335 334 334 333 333 333 333 332 331 332 333 332 333 334 334 334 332 333
315 315 316 316 317 317 317 317 318 318 317 318 318 318 319 322 324 322 323 330 333 331 333 341 343 346 348 348 347 344 344 344 344 344 343 342 341 341 339 336 339 340 339 338 337 336 335 334 334 334 333 331 332 333 333 332 333 333 332 329 328 329 327 326 329 330 330 331 331 332 333 334 334 334 334 333 333 334 334 334 334 333 334 334 333 332 332 331 331 331 331 330 330 331 331 331 332
315 315 315 315 315 316 316 317 317 318 317 318 317 317 318 321 326 324 322 331 333 331 338 345 347 348 349 348 347 345 344 344 344 344 343 343 341 341 339 339 341 341 340 339 337 336 335 334 334 335 334 332 331 332 332 331 331 331 331 330 331 331 328 328 329 328 330 332 331 332 333 334 335 335 334 334 334 335 334 333 333 333 333 333 333 332 333 333 333 332 331 331 330 330 332 332 333
314 314 314 314 314 314 316 317 317 317 317 318 317 315 316 321 327 325 324 333 336 335 340 345 348 349 348 348 346 346 344 344 344 344 344 343 342 341 340 341 341 341 341 339 337 337 335 334 335 336 335 333 331 332 333 332 330 331 331 330 331 330 328 329 330 328 329 331 332 332 333 335 335 335 335 335 335 335 335 334 333 333 333 333 333 333 333 333 333 332 331 331 330 331 332 332 332
313 313 313 314 313 313 316 317 316 317 317 318 317 314 316 321 323 326 331 336 336 333 334 340 348 348 347 348 347 346 345 343 344 343 343 343 343 342 342 343 341 341 341 339 338 337 334 334 335 336 334 333 333 333 333 332 331 330 330 330 331 330 328 330 330 328 329 331 333 333 334 335 335 335 334 335 335 335 335 335 334 333 332 333 333 333 333 332 332 330 330 330 329 330 332 331 331
313 312 312 313 313 314 316 316 316 317 316 317 317 313 317 319 321 332 337 337 335 331 331 339 347 348 346 347 347 346 345 343 344 343 343 343 343 343 343 342 341 341 341 340 338 337 335 335 336 336 335 333 332 334 334 333 332 331 330 330 330 329 328 331 330 328 330 332 333 334 334 334 334 334 334 334 335 335 335 334 333 333 332 332 331 332 331 331 330 329 328 328 328 330 331 331 331
313 312 311 312 312 313 315 316 317 317 316 317 316 315 318 318 326 341 341 339 338 331 330 336 344 347 347 347 346 346 344 344 344 343 343 343 343 343 343 342 341 341 341 340 339 337 336 336 336 335 335 335 333 333 335 334 333 331 329 329 328 327 330 332 331 330 331 332 333 334 334 333 333 334 334 334 334 334 335 334 333 333 332 331 330 330 330 329 330 329 328 328 328 330 331 331 331
312 312 312 313 313 313 314 315 316 317 316 316 316 316 318 318 329 340 339 339 338 330 328 332 339 345 346 346 346 345 344 343 343 342 342 342 342 342 342 342 341 341 340 340 339 337 336 337 337 335 335 336 334 332 332 333 333 332 329 329 328 328 331 333 332 332 332 333 334 334 334 334 334 334 334 334 334 334 334 333 333 334 332 331 330 329 329 329 329 329 328 328 328 329 329 330 329
312 312 312 312 313 312 313 315 316 316 316 316 316 316 317 318 327 334 337 338 335 329 329 330 334 340 345 345 345 344 343 343 343 342 342 342 342 342 341 342 341 341 340 340 339 338 337 337 336 336 335 335 335 331 328 329 332 332 330 330 329 330 333 334 333 333 333 333 334 334 334 334 334 334 334 333 333 333 332 333 333 333 331 330 329 329 329 329 328 328 327 327 328 327 326 325 327
313 314 313 312 312 313 314 315 316 316 315 315 316 316 317 317 322 330 336 338 335 331 331 332 335 340 344 345 344 343 343 343 342 342 342 341 341 341 341 341 341 341 340 340 339 338 338 337 335 335 335 336 335 329 325 326 329 330 330 329 329 331 334 334 333 334 334 333 334 334 335 334 334 334 333 333 332 332 332 333 332 331 329 329 329 329 329 329 328 327 327 327 326 323 320 321 325
314 314 314 313 312 313 315 315 316 316 315 315 316 316 317 317 319 326 335 339 337 335 334 336 340 342 344 344 343 343 342 343 343 341 341 341 341 341 341 341 340 340 340 340 339 338 338 336 333 335 335 336 334 327 325 326 326 329 329 328 330 332 334 334 333 334 334 333 334 334 334 334 334 333 332 331 332 332 332 331 331 329 329 329 329 329 328 327 327 327 327 325 321 318 315 317 324
314 314 314 313 313 313 315 315 315 315 314 314 315 315 316 317 318 322 332 337 337 337 337 339 342 342 343 344 343 342 342 343 342 341 340 340 340 340 340 340 340 340 340 339 338 338 337 334 333 335 336 336 333 327 328 327 325 328 329 329 332 334 334 334 333 334 333 333 334 333 333 333 333 332 331 331 331 332 331 330 329 328 327 327 327 327 326 326 327 327 324 318 315 314 312 313 318
313 314 314 313 313 314 314 315 314 315 314 314 315 315 315 317 317 319 328 333 333 336 337 338 339 341 343 343 343 342 341 342 341 340 340 340 340 340 340 340 340 340 340 339 338 336 336 335 335 336 336 335 332 328 329 329 328 330 330 332 334 334 334 334 333 334 334 334 333 333 333 332 332 332 332 331 331 331 330 329 328 326 325 324 324 325 325 326 325 322 317 313 312 311 311 310 311
313 313 313 312 313 313 312 313 314 315 314 315 316 315 315 317 317 318 325 332 331 332 336 338 339 341 343 343 343 341 341 341 341 340 340 340 339 339 340 339 340 340 339 339 337 332 333 335 336 337 336 335 332 331 331 331 331 332 333 334 334 334 335 334 334 334 333 334 333 333 332 331 332 331 331 330 330 329 328 327 325 323 322 322 324 325 324 322 319 315 312 310 311 310 309 308 307
312 312 312 312 313 313 313 313 314 314 314 317 318 315 316 317 318 317 322 329 329 329 333 336 340 342 342 342 342 341 340 341 340 340 340 339 339 339 339 339 339 340 338 338 336 331 332 336 336 337 337 334 334 333 333 332 332 333 333 334 334 334 334 334 334 334 333 333 333 333 331 331 331 330 330 329 329 328 326 325 323 322 322 323 324 322 319 315 312 311 310 308 308 308 306 305 305
312 312 313 313 313 314 313 314 314 314 313 317 317 314 314 316 319 320 322 328 329 329 331 334 339 341 340 342 341 340 341 340 340 340 339 339 339 339 339 339 339 339 338 337 337 333 333 336 337 337 336 334 335 334 333 332 332 332 333 333 333 333 334 334 334 334 333 333 332 332 331 331 330 330 329 328 328 327 325 324 323 322 323 323 321 316 312 310 309 308 307 305 304 304 303 303 302
311 312 313 313 314 313 313 314 314 313 313 316 316 313 312 314 318 322 323 326 330 331 331 333 337 339 339 340 340 340 341 340 340 340 339 339 339 338 338 338 338 339 338 337 337 335 335 336 337 336 335 335 335 335 333 333 332 333 332 332 333 333 333 333 333 333 333 333 331 331 331 330 329 328 328 328 328 325 323 323 323 322 322 319 314 311 309 308 307 305 304 303 302 301 302 302 301
311 313 312 312 313 312 314 314 313 313 313 315 316 314 312 312 317 323 321 323 329 330 330 332 335 338 339 340 340 341 341 341 340 340 340 339 338 338 338 338 338 338 338 338 338 336 335 337 336 334 335 336 335 333 333 332 333 332 332 333 333 333 333 333 333 333 332 332 331 330 330 329 328 327 327 327 326 324 323 323 322 321 318 313 310 308 306 305 303 303 302 301 301 301 301 301 301
311 313 312 312 312 312 314 314 313 313 313 315 318 316 313 311 316 324 322 323 329 329 328 331 335 339 339 340 341 341 341 341 340 340 340 339 338 338 338 338 338 338 337 337 338 337 335 335 333 333 336 336 333 332 333 333 333 333 333 334 334 334 334 333 333 333 332 331 330 329 328 327 327 327 326 325 324 323 323 322 321 318 313 309 307 305 303 302 301 301 301 300 300 300 300 300 300
311 312 313 312 313 314 314 314 313 313 315 316 318 317 313 312 315 322 324 325 328 327 327 331 335 339 339 339 341 342 342 341 340 340 340 339 338 338 338 338 338 338 337 336 337 337 335 334 333 334 335 335 332 333 334 333 333 334 335 335 334 334 334 333 333 332 331 329 328 328 327 326 325 326 325 323 323 323 322 321 318 314 310 306 305 302 301 301 300 300 300 300 300 300 300 300 300
311 312 312 312 313 315 316 316 314 314 317 317 316 316 315 312 314 320 326 327 326 325 326 330 335 337 337 339 341 342 341 341 341 340 340 339 339 338 338 337 338 338 337 336 337 337 336 334 333 334 334 333 333 333 334 334 335 335 335 335 334 334 333 332 332 331 330 328 328 328 327 325 325 325 324 323 323 322 320 318 314 310 306 304 302 301 300 300 300 300 299 300 300 300 300 300 300
311 312 312 312 313 314 314 316 316 317 318 316 313 316 317 313 313 318 326 327 325 324 324 329 334 335 336 339 341 341 341 341 341 340 340 340 339 338 338 337 338 338 337 336 336 337 336 332 331 332 333 333 333 333 334 335 335 335 335 335 334 333 333 332 331 330 330 329 328 327 326 325 325 324 324 323 322 320 317 314 309 305 303 301 300 299 299 299 299 299 299 299 299 299 299 299 299
310 311 311 312 312 314 314 315 317 318 318 317 315 315 317 316 316 318 323 325 325 324 324 330 333 334 336 338 341 342 341 341 340 340 340 339 339 339 338 338 337 338 337 337 336 336 335 332 330 331 333 333 333 333 334 336 335 335 335 334 334 333 333 332 331 330 330 329 328 326 326 326 324 323 323 322 320 317 313 309 305 303 301 300 299 299 299 299 299 299 299 299 299 299 299 299 299
309 309 311 312 312 314 315 314 316 317 316 317 316 314 317 318 320 319 320 325 328 325 325 330 332 332 336 339 341 341 341 341 340 340 340 339 339 338 338 338 337 338 337 336 336 335 335 334 333 333 334 334 333 333 334 335 335 335 334 334 333 333 332 332 331 330 329 328 328 326 326 326 324 323 323 320 317 314 308 305 303 301 300 299 298 298 298 299 298 298 298 299 299 299 299 299 299
310 310 311 312 312 314 315 314 315 316 315 317 318 319 318 318 321 323 320 325 329 326 324 327 329 331 335 338 339 340 341 341 339 340 339 339 339 338 338 338 337 338 337 336 336 336 335 335 335 334 334 334 334 333 334 335 334 334 334 334 333 332 332 332 331 330 329 328 328 327 327 326 324 324 322 317 314 310 305 302 301 300 299 298 298 298 298 298 298 298 298 298 298 299 299 299 299
310 310 310 311 313 314 314 314 316 314 315 317 318 320 320 319 322 325 323 325 326 325 324 326 329 332 334 338 339 340 341 340 340 339 339 339 339 338 338 338 337 338 336 335 336 336 335 335 335 335 334 334 335 334 334 334 334 334 334 333 333 332 332 331 330 330 329 328 328 327 327 325 325 324 319 312 308 305 302 301 300 299 299 298 298 298 298 298 298 298 298 298 298 298 299 299 298
311 310 310 311 314 314 313 314 316 315 315 318 318 319 320 321 323 324 324 324 323 324 325 328 333 335 337 339 339 340 340 340 339 339 339 339 338 338 338 338 337 337 336 336 336 336 336 334 334 334 334 335 335 335 334 334 334 334 333 333 332 332 331 330 330 329 329 328 328 327 326 325 325 322 314 307 304 302 301 300 299 298 298 298 298 298 298 297 297 298 298 298 298 298 298 298 298
310 310 311 312 313 314 314 314 315 315 316 317 318 318 318 317 319 324 324 323 323 324 324 327 333 336 338 339 339 340 340 340 339 339 338 338 338 338 338 338 337 337 336 336 335 336 335 334 334 334 334 335 335 335 334 334 334 334 333 333 332 332 331 330 329 329 328 328 328 327 325 325 324 318 309 304 302 300 300 300 299 298 298 297 297 297 297 297 297 297 298 298 298 298 298 298 298
311 311 312 312 311 312 313 314 314 315 315 315 315 317 317 314 317 324 325 323 323 324 323 324 329 335 337 337 338 339 339 340 339 339 338 338 338 337 338 338 337 336 336 336 335 335 335 334 334 334 335 335 335 335 334 333 334 333 333 332 331 331 330 330 330 329 328 328 327 326 325 325 322 313 305 301 300 299 299 299 298 298 297 297 297 297 297 297 297 297 297 297 297 297 297 297 297
311 312 312 313 313 312 313 314 314 314 314 314 314 315 316 315 317 323 324 323 323 323 323 323 327 334 337 336 337 338 339 340 340 339 339 338 337 337 337 337 337 337 336 335 334 335 335 334 334 334 334 335 335 335 333 333 333 333 333 331 331 331 330 330 330 329 328 328 327 326 325 323 318 309 302 300 299 298 298 298 298 297 297 297 297 297 297 297 297 297 296 297 297 297 297 297 296
310 311 312 312 313 313 313 314 313 313 313 313 314 315 314 316 319 321 323 324 324 323 323 324 327 332 334 334 335 338 341 340 340 339 339 338 337 337 337 337 337 336 336 335 334 334 335 334 333 334 334 335 335 334 333 333 333 334 333 331 330 330 330 329 329 328 328 328 328 327 324 322 315 305 300 299 298 298 298 297 297 297 297 297 296 297 297 297 296 296 296 297 297 297 296 296 296
310 311 311 312 312 312 312 312 313 313 313 313 314 314 314 318 321 320 321 322 322 322 322 323 326 329 332 334 336 340 341 340 340 339 338 337 337 337 337 337 337 336 336 335 334 334 334 334 334 333 334 334 335 334 333 333 333 333 332 330 330 329 329 330 329 328 327 327 327 325 322 319 312 303 299 299 297 297 297 297 297 296 296 296 296 296 297 296 296 296 296 296 296 296 296 295 295
Wind_Speed
9 10 10 10 11 7 6 6 2 2 1 5 4 4 5 4 3 2 5 3 2 6 5 2 3 2 1 3 5 5 6 7 7 5 3 1 4 10 19 23 24 23 21 19 16 14 14 16 17 16 16 14 13 13 14 15 14 14 12 12 12 12 11 11 11 10 10 10 9 9 10 9 8 8 8 8 8 7 7 8 9 9 11 13 14 15 16 17 17 18 19 19 19 19 19 18 18
10 9 10 9 9 5 4 7 2 4 3 5 5 4 4 2 4 6 7 6 5 6 3 3 4 4 3 2 2 1 6 8 6 5 3 3 6 10 19 24 24 23 21 19 16 14 14 17 18 17 16 14 13 12 13 13 14 13 12 11 11 11 11 11 10 9 9 9 9 9 9 9 8 7 7 7 7 6 6 8 9 9 10 13 14 15 17 18 18 18 19 19 19 19 18 18 17
11 9 10 8 5 3 3 5 2 3 3 5 5 4 1 3 7 8 8 8 7 4 3 4 3 4 1 3 1 1 4 6 4 5 3 5 8 12 22 24 23 22 20 18 15 13 12 17 18 17 16 14 12 12 12 13 14 13 11 11 11 11 10 10 9 9 9 9 8 8 8 8 7 6 6 6 5 4 5 6 8 8 9 13 14 15 18 19 19 19 19 19 19 19 18 17 16
10 9 10 7 2 1 2 2 2 3 3 4 5 5 2 5 8 7 8 8 5 2 1 0 1 2 4 3 2 2 4 5 3 3 4 7 7 15 25 25 22 21 18 16 14 12 11 16 19 17 16 13 12 11 12 12 13 12 11 11 10 10 10 9 9 8 8 8 8 7 7 7 6 6 5 5 4 3 3 3 5 7 9 12 14 15 18 19 19 18 18 18 18 18 17 16 15
9 8 9 7 6 1 1 1 1 3 0 1 3 6 3 6 7 6 6 5 4 3 3 4 2 2 2 3 3 2 5 4 1 3 8 8 9 19 27 25 22 19 17 16 14 12 11 16 18 18 16 13 12 11 11 12 12 11 11 10 10 9 9 9 8 8 7 7 7 6 6 6 6 5 5 5 5 4 2 1 3 6 8 12 14 15 18 18 18 18 18 17 17 17 16 15 14
7 8 7 5 2 1 2 2 3 2 3 2 2 6 3 5 6 5 4 2 1 2 3 4 4 2 1 3 3 3 3 3 3 4 8 9 14 21 26 24 20 17 17 15 13 10 11 16 19 17 15 13 11 11 11 11 11 11 10 10 9 9 9 8 8 8 7 7 7 6 6 6 5 5 5 5 4 3 3 3 4 7 9 11 14 15 16 17 18 17 17 17 16 16 14 14 13
6 7 6 3 1 1 4 4 5 3 4 1 2 4 2 5 5 4 3 1 1 1 3 4 5 6 2 4 3 3 4 5 4 3 7 11 18 23 24 22 19 17 16 14 12 10 11 16 18 17 15 13 12 11 12 11 11 10 9 9 9 9 8 8 7 7 7 6 6 6 6 5 5 5 5 4 3 3 3 4 6 8 10 12 13 14 14 16 17 17 17 16 15 14 13 12 11
4 5 4 3 2 1 4 5 6 3 3 2 2 2 3 4 3 2 3 2 2 2 3 4 6 6 2 4 2 3 4 7 6 6 9 14 21 23 23 20 18 16 15 13 11 10 12 16 18 17 15 14 12 12 11 11 11 10 10 9 9 9 8 7 7 7 6 5 5 5 5 4 5 5 5 5 5 4 4 6 8 9 10 11 12 13 14 15 17 17 16 15 13 13 12 11 10
3 4 2 4 5 3 4 5 6 4 5 4 1 0 2 3 3 2 2 2 3 5 4 4 5 5 2 4 4 5 3 6 7 9 12 17 21 22 21 18 16 15 15 13 11 10 12 16 18 17 16 14 13 12 10 10 10 9 9 9 8 8 8 7 6 6 5 4 4 4 5 5 5 6 6 6 6 6 5 6 8 10 11 12 11 12 14 15 16 16 15 13 12 11 10 9 8
5 5 2 3 5 7 7 6 5 4 7 6 3 1 3 4 1 1 3 3 4 5 5 4 5 3 0 3 6 5 3 4 8 11 15 18 21 21 19 17 15 15 13 12 11 10 11 17 18 17 17 15 14 13 11 10 9 9 9 8 9 8 7 7 5 4 4 3 4 5 5 6 6 6 6 7 7 7 6 7 8 9 11 12 12 12 13 14 14 14 13 12 11 9 8 7 6
6 3 2 4 7 9 10 8 7 4 8 7 5 4 3 4 2 1 2 4 3 5 4 2 4 1 1 3 4 5 5 6 9 12 16 18 20 20 18 16 15 15 12 11 11 9 11 17 18 17 16 15 15 13 12 11 9 9 9 9 9 8 7 5 4 3 3 4 5 5 6 6 7 7 7 7 7 7 7 7 8 9 10 12 12 11 12 12 12 12 11 10 9 7 6 5 4
7 4 4 7 8 9 10 10 10 7 6 6 5 6 4 5 4 2 1 3 3 4 3 3 3 0 2 4 5 6 6 8 10 13 15 17 18 18 16 15 15 15 11 10 11 10 12 17 18 17 15 15 15 13 12 11 10 10 9 10 9 7 6 4 3 3 4 5 6 6 6 7 7 7 7 8 8 7 7 8 8 8 9 10 11 11 10 10 10 10 9 8 7 6 5 4 3
9 6 6 8 9 10 10 10 10 8 6 5 5 7 5 5 4 2 2 2 3 4 3 3 4 2 2 3 5 7 8 10 11 12 14 15 15 14 13 12 13 12 11 11 10 10 11 15 16 16 15 14 14 12 12 12 11 11 10 10 8 7 5 3 3 4 5 6 6 6 6 7 7 7 8 8 8 8 8 8 8 8 8 9 9 9 9 8 8 8 7 6 6 5 4 3 2
10 8 7 7 10 11 10 10 9 8 7 5 6 9 7 5 3 2 3 5 4 6 3 1 3 4 2 3 5 8 11 12 13 13 14 14 13 13 12 11 12 12 11 11 10 10 11 12 14 16 16 14 12 11 11 11 11 11 11 10 8 6 4 3 4 5 6 7 7 7 7 7 7 8 8 8 9 9 9 9 9 9 8 8 8 8 7 7 7 7 6 6 5 4 3 2 1
12 10 8 7 10 11 10 11 10 9 6 6 6 7 8 5 3 2 2 6 5 4 2 2 2 3 1 2 1 9 14 14 15 15 14 14 13 12 12 11 12 12 11 11 10 10 11 12 13 15 16 14 12 11 11 11 11 11 10 9 7 6 4 4 4 6 7 8 8 7 7 8 7 8 8 8 9 9 10 10 10 9 9 9 8 7 7 7 6 7 6 5 5 4 3 2 2
12 9 8 8 11 12 10 12 11 10 5 5 5 5 7 6 3 1 0 4 3 1 2 1 3 2 2 4 5 8 14 15 16 15 14 14 13 12 11 11 11 11 10 11 11 10 11 12 13 15 15 15 13 12 12 11 10 10 10 8 7 5 5 5 6 7 8 8 8 8 8 9 9 8 8 8 9 9 10 10 10 10 10 9 8 8 7 6 6 5 5 5 5 4 4 4 4
12 9 9 9 12 12 11 12 10 8 6 5 5 5 6 4 4 1 2 3 5 3 2 2 4 4 1 3 5 5 10 15 18 16 16 14 13 13 11 10 11 11 9 10 11 10 11 13 13 14 15 15 14 13 12 11 10 10 8 7 6 5 5 6 7 8 8 8 8 8 8 9 9 9 9 8 9 8 8 9 10 9 9 9 8 7 7 6 5 5 5 4 4 4 4 4 5
12 7 10 11 12 13 12 12 8 4 5 5 6 6 7 7 4 3 3 5 5 5 5 5 4 5 5 3 6 5 7 15 18 17 17 15 14 13 12 12 12 12 10 10 10 10 12 14 14 14 15 15 14 14 12 11 10 9 7 6 5 5 6 7 8 8 8 8 8 7 7 7 8 8 7 8 8 8 8 8 8 8 7 7 7 7 6 5 5 4 4 3 4 3 3 3 4
14 8 10 13 12 14 15 13 9 6 6 7 8 7 7 13 9 3 6 8 7 8 8 7 6 5 6 6 9 7 9 15 18 18 17 16 15 14 13 13 13 13 12 12 11 12 13 13 14 14 15 16 15 14 12 11 10 9 8 6 5 5 6 8 8 8 7 7 6 6 6 6 7 5 4 6 7 6 6 7 6 6 6 6 5 5 5 4 4 3 3 3 3 2 1 2 2
17 14 11 13 15 17 17 15 13 10 8 9 9 8 11 18 14 6 10 12 9 12 9 7 8 7 8 9 11 10 11 15 18 17 17 16 15 14 14 14 15 14 14 14 12 13 14 13 15 15 15 16 15 14 12 12 11 10 8 7 6 5 7 8 8 8 7 8 6 5 5 4 5 4 3 5 5 4 4 5 5 5 4 4 4 3 2 2 2 1 2 1 0 1 1 2 2
16 16 13 13 17 18 16 16 15 13 12 12 12 9 13 19 16 12 13 12 10 14 12 8 9 6 11 11 12 14 13 15 18 17 17 17 15 14 14 15 14 14 15 15 13 14 14 14 15 15 15 16 15 14 13 12 12 10 9 8 8 8 7 7 8 8 8 8 6 4 4 3 3 3 2 3 3 2 2 3 3 3 4 3 4 3 2 2 2 1 0 1 1 1 2 2 2
14 17 18 19 19 16 16 17 15 16 15 14 13 11 13 15 15 17 17 14 12 10 9 8 8 5 10 12 12 16 15 15 18 18 18 18 18 16 14 14 14 15 16 14 14 14 14 14 15 16 15 16 15 14 13 12 11 10 9 9 9 7 7 7 8 8 8 7 5 3 3 2 2 2 2 2 2 2 2 2 2 3 3 3 4 3 1 2 2 2 1 1 1 1 1 2 2
13 14 20 24 22 16 16 18 16 18 17 16 16 15 15 15 15 18 20 20 15 6 2 5 7 6 9 12 13 15 16 16 17 18 19 19 18 16 15 15 16 17 16 14 14 13 14 14 15 16 16 16 15 14 14 12 11 10 10 11 9 7 7 8 8 8 7 6 5 3 2 1 1 1 1 1 2 2 2 2 2 2 3 3 3 3 1 2 1 1 1 1 1 0 1 1 3
16 14 18 22 22 18 17 17 17 19 20 20 18 15 16 16 15 17 19 22 17 6 4 7 7 7 10 12 13 14 15 16 17 17 18 18 17 15 15 17 18 18 16 15 15 13 14 14 15 16 17 16 14 15 14 12 11 11 11 11 8 8 8 8 8 8 7 5 4 3 3 2 1 1 1 1 1 2 1 2 1 2 3 2 3 3 2 2 1 0 0 0 0 0 1 1 2
18 17 15 17 20 19 19 17 17 20 20 18 17 15 18 19 17 17 19 21 17 9 7 8 8 9 11 13 14 14 15 16 17 17 18 18 16 15 16 19 21 18 15 15 15 13 13 14 14 15 17 17 15 15 14 12 12 11 11 9 8 9 8 7 7 7 6 5 4 4 4 3 3 3 2 2 1 1 2 2 2 2 2 2 2 3 2 1 1 1 1 2 2 2 2 2 2
18 21 16 13 16 18 19 18 16 18 18 16 16 18 19 18 15 16 20 20 15 11 9 8 10 11 12 13 15 15 15 17 18 18 18 17 17 16 18 22 21 15 13 14 15 14 13 14 14 14 16 17 16 15 14 13 12 11 10 9 8 9 8 8 8 7 6 5 5 5 5 4 4 4 3 3 2 2 2 2 2 2 2 2 2 2 1 1 1 2 2 2 2 2 3 3 3
14 23 20 13 14 16 19 19 16 17 17 18 18 18 18 16 12 12 18 19 14 13 11 10 11 12 13 14 15 15 15 17 18 19 19 18 19 17 19 23 18 13 14 15 15 14 14 15 15 15 16 17 17 15 15 14 13 12 11 10 9 9 8 9 9 7 7 6 6 5 5 4 4 4 4 4 3 3 3 2 2 1 1 1 2 2 1 1 1 1 2 2 2 3 3 4 3
9 19 18 13 13 14 18 20 19 16 14 18 19 17 18 17 14 15 16 17 17 16 13 13 12 12 14 14 15 14 14 16 18 19 20 21 20 18 20 23 16 13 14 14 15 14 15 15 15 15 15 18 18 16 15 15 13 13 12 11 9 9 10 10 9 8 8 7 6 5 4 4 4 5 5 4 3 3 3 3 2 1 1 1 1 1 2 2 2 1 2 2 3 3 4 5 4
8 14 14 13 13 13 19 20 20 18 13 17 16 14 17 17 18 20 18 18 18 18 15 14 13 12 14 15 15 15 15 16 18 19 20 20 19 18 21 21 15 14 13 13 15 15 14 15 15 15 16 17 17 16 15 14 13 12 12 11 10 10 11 10 9 9 8 7 6 6 5 4 4 4 4 3 3 3 3 2 2 2 1 1 1 1 2 2 2 2 3 3 3 4 4 5 4
9 13 11 11 12 13 19 20 20 20 15 17 15 12 16 18 22 23 21 19 18 17 17 16 14 13 14 15 15 15 16 17 19 20 19 19 18 18 19 17 15 14 12 13 16 15 14 14 15 16 17 18 17 16 14 13 12 12 11 11 11 11 11 10 9 8 8 7 6 6 6 4 4 3 3 3 2 2 2 2 2 2 1 1 1 1 2 2 2 2 3 4 4 5 4 4 4
10 11 9 10 10 12 20 22 21 19 16 20 17 13 15 18 22 26 24 23 21 19 20 17 15 14 14 15 15 15 16 18 19 19 18 19 18 17 18 17 16 15 13 13 15 15 15 15 16 16 17 18 17 15 14 14 13 12 12 12 11 11 10 9 9 9 8 7 6 6 6 4 4 3 3 3 2 2 2 1 1 1 1 0 1 2 2 2 2 4 4 4 5 4 4 4 4
11 11 10 12 11 12 19 24 24 20 16 21 19 13 14 18 17 23 24 23 22 21 21 18 15 15 14 15 15 15 16 17 18 19 19 20 18 16 17 17 17 15 14 15 15 16 16 16 16 16 16 17 17 15 14 14 14 13 13 13 12 11 10 9 8 9 8 7 7 6 5 4 4 4 3 3 2 2 2 2 2 2 2 1 2 3 3 4 5 6 5 5 5 4 4 3 3
11 12 12 14 16 13 14 21 27 25 16 19 22 15 12 15 12 20 21 21 22 21 20 19 16 15 15 15 15 16 17 18 19 20 20 21 19 17 17 18 17 16 16 16 16 17 17 16 16 16 16 16 16 17 16 14 13 13 14 14 13 11 9 9 8 9 8 8 6 5 4 3 3 4 3 3 3 2 2 3 2 2 2 2 4 5 5 6 7 7 6 5 6 5 3 2 2
11 13 13 16 20 16 13 16 24 28 19 18 23 19 15 12 10 18 19 20 21 21 21 20 17 16 15 15 15 17 19 20 19 20 20 21 21 19 18 17 17 16 16 16 16 17 17 16 15 15 16 15 15 17 17 15 14 14 14 14 13 11 10 10 9 9 8 7 6 5 4 4 4 4 4 4 3 3 3 3 2 2 3 4 5 6 6 7 7 7 8 6 7 6 4 4 1
16 16 13 15 19 19 18 14 18 27 23 19 20 20 21 14 10 16 20 20 21 22 21 21 20 17 15 16 16 17 19 19 18 18 20 21 21 20 19 18 17 17 16 16 17 17 16 16 15 16 17 16 16 16 16 16 15 15 16 15 14 12 11 11 10 8 7 7 6 5 4 4 4 4 4 4 3 3 3 3 3 4 5 5 5 6 6 7 8 8 9 8 7 5 6 5 2
21 19 15 15 15 16 18 14 15 24 22 20 21 19 22 19 13 14 18 20 20 21 21 20 19 17 16 17 16 18 19 18 18 18 20 22 22 21 20 19 18 18 17 17 19 18 17 17 17 18 18 16 15 14 16 18 17 17 18 16 14 13 11 12 10 8 6 6 5 4 4 4 4 5 5 4 4 4 3 3 5 6 6 5 5 6 7 9 9 9 8 7 5 3 3 2 4
17 19 16 17 15 12 17 14 15 22 18 18 24 22 21 22 18 15 17 18 18 19 20 19 19 18 17 17 17 17 18 18 19 18 19 21 21 22 22 22 20 19 17 17 21 21 18 18 19 19 18 15 15 16 18 18 17 19 18 14 14 12 11 11 9 8 6 5 5 5 5 5 5 5 4 4 4 3 3 4 6 7 6 6 7 7 8 9 9 8 6 4 2 0 1 4 6
13 16 14 15 14 11 14 14 14 20 16 15 22 22 21 22 19 17 17 17 18 20 20 20 21 19 17 17 16 17 16 16 19 18 18 20 21 21 22 22 21 19 18 18 22 21 18 19 21 20 18 16 16 17 18 16 16 17 16 14 13 11 11 10 8 8 6 5 4 4 5 6 5 4 4 4 3 3 4 6 7 8 8 7 8 8 8 8 7 5 2 1 1 2 2 4 7
12 12 10 11 11 9 11 13 15 17 12 12 19 19 19 21 19 18 19 19 19 21 21 20 20 18 16 16 16 17 18 17 18 18 18 20 21 21 20 20 20 19 19 20 23 22 19 19 19 19 20 18 18 18 17 16 16 15 14 13 12 10 10 9 8 7 6 6 5 4 4 6 6 5 4 4 3 4 6 7 7 8 8 8 9 8 7 5 3 1 3 4 4 3 3 3 5
10 10 9 10 12 12 10 12 16 15 12 10 15 15 13 16 17 18 22 23 21 21 21 20 19 18 16 17 16 18 21 20 19 20 20 19 21 21 19 18 18 17 18 20 23 23 22 21 19 21 21 18 19 19 17 17 17 16 15 13 11 10 9 8 7 7 7 7 8 6 5 6 6 5 4 4 5 6 6 6 7 8 7 7 7 5 3 0 2 4 5 5 6 4 3 3 4
11 11 11 10 14 15 10 12 15 13 12 10 10 10 9 13 17 16 18 20 21 21 22 20 19 18 15 15 16 17 22 23 21 21 20 20 21 20 18 17 16 17 19 20 21 22 22 22 21 21 20 18 19 19 18 19 19 18 16 14 12 10 9 9 9 9 9 9 9 7 6 5 5 4 4 5 6 6 6 6 7 7 7 5 2 1 3 4 5 5 5 5 5 5 4 4 5
11 12 11 10 12 17 13 13 15 9 10 12 11 9 8 14 18 17 15 16 18 19 20 21 20 19 17 16 17 19 22 24 22 21 20 19 20 18 17 16 17 20 20 19 22 23 22 23 23 22 20 19 20 19 19 20 20 18 16 14 13 11 11 12 11 10 11 11 10 8 7 6 5 6 6 6 6 7 6 6 6 6 4 1 3 5 6 7 6 5 5 5 5 6 6 6 7
10 11 11 10 8 14 15 15 14 8 9 13 15 12 8 11 17 18 17 16 18 18 18 20 21 20 19 18 19 21 24 26 23 20 19 19 19 18 17 18 21 22 19 20 24 24 23 24 23 21 20 20 20 20 20 20 19 17 15 14 12 10 11 13 12 11 11 11 10 8 7 6 6 6 6 6 6 6 5 6 6 4 1 4 6 8 8 7 6 5 5 6 5 7 9 9 9
9 10 13 13 11 13 15 15 12 9 8 11 16 15 10 9 13 17 20 19 19 20 19 19 21 20 20 20 21 23 26 26 24 22 20 19 20 19 19 22 22 20 19 23 25 24 23 24 22 20 22 22 21 21 21 20 18 16 15 13 11 10 11 11 11 11 12 12 9 8 8 7 6 5 6 6 5 4 5 5 4 1 4 7 8 8 8 7 6 6 6 7 7 8 9 9 10
10 9 12 14 14 14 14 13 10 10 9 9 14 15 11 10 10 13 19 20 19 22 22 19 19 21 22 22 23 24 26 26 25 23 21 20 21 19 21 23 21 18 20 24 25 23 22 23 23 22 23 22 22 23 22 19 17 15 14 13 12 13 12 10 10 12 12 12 9 8 7 7 6 5 5 4 3 4 5 4 2 3 7 9 9 8 7 7 7 8 8 9 9 10 9 9 10
10 10 11 10 10 12 13 11 10 10 10 10 14 16 11 10 9 10 14 19 20 20 19 18 20 23 24 24 24 24 25 27 26 24 22 21 20 20 22 22 20 18 21 22 22 22 23 23 24 25 24 24 24 24 21 19 17 15 14 15 14 14 14 12 12 13 13 11 9 8 6 5 5 5 4 3 4 5 5 3 3 6 9 9 9 8 8 8 9 9 10 10 10 10 10 10 10
12 10 11 9 8 9 9 9 9 9 9 13 18 19 15 10 9 11 13 16 17 15 15 17 21 24 25 24 24 25 26 28 27 25 23 20 19 20 21 21 20 19 21 21 21 23 26 26 26 27 27 25 25 23 21 19 17 16 16 15 14 13 14 15 14 14 13 11 9 7 5 3 4 5 4 4 5 5 4 3 6 9 10 9 9 8 9 9 10 11 10 11 11 11 11 11 11
13 10 11 9 8 7 7 8 9 9 10 14 19 19 17 13 10 12 14 16 16 15 17 19 20 23 25 24 24 25 26 27 27 26 25 21 21 21 22 23 22 21 22 23 23 24 27 28 27 28 27 26 25 24 22 19 18 17 16 15 14 12 11 13 13 12 12 10 7 5 3 3 4 6 6 7 7 4 2 6 9 11 10 10 9 9 10 11 11 11 11 11 11 11 11 11 11
13 11 12 10 9 8 8 9 9 10 9 10 17 19 15 13 12 12 13 14 16 17 17 18 21 24 25 24 24 24 25 26 27 28 27 23 22 22 23 24 24 25 25 24 26 26 26 28 28 28 27 25 25 24 21 19 18 17 16 15 14 13 10 9 10 10 9 8 6 4 3 4 4 5 8 7 4 2 7 10 11 11 10 10 10 10 12 13 12 11 11 11 12 12 11 11 11
15 14 13 12 11 9 10 10 9 11 7 5 13 16 12 12 12 15 15 11 15 19 19 20 23 25 26 25 24 24 25 26 26 29 28 25 24 24 24 25 25 28 27 25 29 29 25 26 28 28 27 25 25 24 22 20 19 18 18 17 15 15 13 10 9 9 7 6 4 4 4 5 5 7 10 5 3 7 10 12 11 10 10 10 11 12 13 13 12 11 11 12 12 12 11 11 10
15 15 14 13 10 9 10 10 10 12 9 8 12 11 10 9 3 7 14 12 13 18 20 20 21 24 25 23 23 24 25 25 25 27 27 24 24 24 24 25 25 28 28 26 29 30 26 25 26 27 27 26 25 25 23 22 22 20 19 18 16 16 15 13 11 9 7 6 6 5 5 6 7 10 10 4 7 10 12 12 11 10 10 11 12 12 13 13 12 11 11 12 12 12 11 10 9
13 14 14 13 11 9 6 3 3 7 8 8 10 8 6 4 3 1 8 13 15 16 17 18 18 19 21 21 23 24 25 26 26 27 27 25 25 25 25 26 27 28 28 28 29 31 27 24 25 25 26 27 25 25 25 24 22 20 19 19 18 17 16 14 13 10 8 8 8 7 7 8 10 11 7 8 11 12 13 11 11 11 11 12 12 13 13 13 12 11 11 12 12 11 10 9 9
10 13 14 13 13 11 5 1 2 3 8 7 8 9 6 3 2 5 9 11 15 15 15 16 16 17 19 20 23 25 26 27 27 27 28 27 27 27 25 26 29 30 29 28 29 30 28 25 26 27 27 27 26 24 24 23 21 20 20 20 18 18 17 15 13 11 9 10 10 8 8 9 11 10 6 13 14 14 13 12 11 11 11 12 12 13 13 12 11 11 11 11 11 10 9 9 9
9 11 14 14 14 12 7 5 4 6 8 6 9 14 11 7 5 8 12 13 15 16 15 16 17 18 18 19 22 24 25 26 27 27 27 28 28 28 27 27 29 30 30 29 28 28 28 27 29 30 29 28 27 25 24 23 21 21 21 21 19 18 17 15 14 12 10 12 11 8 8 10 11 7 11 15 14 14 13 12 11 11 12 12 12 13 13 12 11 10 11 11 10 9 8 8 9
13 11 13 12 12 12 10 8 7 9 9 7 11 14 11 10 7 8 12 14 15 16 16 16 16 17 18 19 21 23 23 24 25 27 27 27 28 29 28 27 27 28 30 29 28 30 30 29 30 29 29 29 27 25 24 21 20 21 22 21 20 18 17 16 14 13 13 13 11 8 9 11 10 8 15 16 14 14 13 12 12 11 12 12 12 12 12 11 10 10 10 10 10 9 7 8 9
12 10 13 11 8 10 11 8 7 9 9 7 10 11 9 10 9 8 11 13 15 15 16 16 16 17 19 20 20 21 23 25 26 27 27 27 29 30 29 28 27 28 30 29 28 30 31 31 30 28 27 29 27 24 22 20 20 22 22 21 20 18 17 16 15 15 15 14 11 9 11 11 7 12 17 15 14 14 12 13 13 12 13 12 12 12 12 11 10 10 10 10 9 8 7 8 9
9 9 14 13 9 8 10 9 7 7 8 8 8 8 7 7 8 8 10 11 12 14 14 14 16 20 23 22 21 22 24 26 27 28 28 27 29 29 27 27 26 28 30 29 28 28 28 29 29 27 28 29 27 24 22 21 22 22 22 21 19 19 18 17 17 17 17 15 12 11 12 11 9 16 17 15 15 14 13 13 13 12 13 12 12 12 11 11 10 10 10 9 8 8 7 8 9
12 10 11 12 11 10 11 11 10 8 8 7 7 8 6 5 6 9 10 10 11 13 14 13 17 23 24 22 21 22 24 25 26 27 27 26 29 29 27 27 27 28 29 29 29 28 27 29 28 27 28 29 27 25 23 22 23 23 23 21 19 19 18 18 19 19 18 14 11 12 12 10 12 18 17 16 16 15 14 14 13 13 13 12 12 11 11 10 9 9 9 9 9 8 7 8 9
Wind_Direction
357 5 7 15 23 9 352 334 220 108 152 107 94 109 72 39 22 67 97 96 136 55 26 43 93 119 78 28 29 40 29 9 1 2 45 98 191 158 165 172 171 176 180 180 182 177 181 179 175 177 179 182 179 173 174 174 173 165 152 144 141 140 139 139 139 135 131 126 121 115 111 106 102 94 85 79 74 60 48 45 46 67 97 110 118 121 120 122 124 123 124 124 124 125 123 121 119
349 6 7 14 28 11 347 326 237 139 161 116 74 73 77 76 53 43 47 34 39 43 41 76 104 107 62 51 46 78 58 34 28 52 79 165 146 150 165 169 170 174 178 181 177 166 175 181 178 179 182 185 179 174 174 173 175 169 153 145 143 143 142 140 139 135 131 126 122 117 112 109 107 103 93 84 76 62 64 63 54 69 102 114 118 122 122 122 124 125 126 126 126 125 124 123 120
341 359 5 6 35 29 338 319 242 181 181 133 90 76 55 70 59 37 31 26 42 47 69 90 125 103 351 239 251 341 62 54 64 85 99 141 141 157 163 165 169 174 176 179 173 158 169 180 180 179 183 186 178 175 173 172 175 168 153 147 145 144 142 140 140 136 131 126 123 119 118 119 116 109 99 93 85 80 89 69 52 70 104 117 119 122 123 125 126 127 127 127 128 127 126 123 121
332 347 3 349 284 52 347 343 24 271 206 146 120 104 52 63 57 37 34 23 36 37 32 277 184 83 300 289 345 331 88 83 82 89 108 133 168 165 160 165 168 172 173 170 161 153 169 179 179 180 183 185 179 174 173 173 172 162 151 149 146 145 142 142 142 138 134 128 126 123 124 126 123 116 112 119 121 132 124 63 51 79 106 120 122 124 125 127 127 129 129 130 130 127 126 125 123
323 332 355 333 263 252 19 24 22 277 239 147 133 110 64 57 49 37 39 24 25 352 341 293 285 104 293 8 351 336 79 88 77 94 116 144 184 165 160 165 164 168 169 160 150 152 175 179 178 179 181 184 180 174 172 172 164 153 150 150 147 145 143 143 144 140 137 133 132 130 128 130 130 129 133 146 151 165 173 98 82 100 114 124 125 127 129 130 131 132 132 132 130 129 129 128 125
317 314 329 338 288 184 230 211 214 202 81 332 83 94 51 42 38 25 29 45 49 315 317 294 294 264 216 85 51 47 101 102 68 109 126 157 172 161 162 162 161 166 167 162 149 155 177 176 177 177 179 182 177 174 170 165 156 151 151 151 149 145 144 146 146 142 142 141 138 135 135 136 137 138 136 144 148 155 165 144 121 118 125 128 127 129 132 133 135 133 133 133 132 133 133 130 126
308 294 295 314 87 205 240 218 227 205 110 350 28 72 28 24 22 4 6 38 131 267 256 280 288 274 205 134 109 95 163 120 77 139 149 163 160 159 161 158 162 167 171 166 146 161 179 173 176 175 177 181 175 169 162 158 153 151 152 153 151 146 146 148 148 147 150 150 148 147 149 150 147 143 136 138 131 127 143 142 134 127 133 137 132 131 135 137 137 135 134 135 137 138 135 132 127
297 290 304 289 253 242 245 226 230 226 118 108 5 17 4 359 355 343 0 9 6 340 272 281 277 272 150 155 149 94 161 147 130 148 161 164 156 158 158 158 164 166 174 164 145 168 178 172 174 173 176 180 171 161 157 156 155 155 156 156 151 148 151 152 157 159 161 165 169 170 166 162 152 143 135 131 125 125 136 142 140 134 139 146 141 138 140 141 139 137 138 139 140 140 138 135 126
269 265 277 266 259 250 245 239 226 192 149 163 189 347 323 309 328 321 341 19 354 332 318 314 275 283 110 154 122 103 148 160 138 140 159 159 156 160 158 160 163 166 177 162 148 165 172 173 173 173 177 178 162 153 158 157 158 160 156 153 150 152 157 160 168 170 172 181 187 182 166 152 141 134 129 125 124 128 135 145 144 139 144 150 148 141 141 141 139 139 140 141 143 142 139 133 124
234 245 248 245 253 248 243 239 228 166 149 173 181 165 271 269 276 351 343 11 9 335 337 326 261 275 68 138 113 135 174 139 130 139 154 157 159 162 160 161 162 172 179 159 149 157 170 173 172 174 178 174 156 152 161 157 160 160 152 153 153 158 166 169 175 181 183 181 178 168 151 138 132 126 124 123 124 130 137 147 148 145 147 151 150 143 141 140 140 141 142 143 145 142 138 130 119
220 213 205 237 239 242 242 232 228 191 148 171 177 170 236 251 226 154 345 351 10 337 341 297 249 248 207 136 110 192 193 136 138 145 153 160 160 162 162 163 168 177 178 157 150 154 168 171 171 175 179 172 155 155 162 156 162 160 157 160 159 168 172 172 181 187 175 161 159 150 138 130 124 121 121 121 121 130 140 148 150 147 147 151 152 149 146 144 145 146 146 146 144 142 138 129 113
223 192 200 236 236 239 241 235 229 219 180 187 169 152 198 230 218 166 303 342 353 333 358 320 310 353 204 135 122 190 176 139 147 151 153 157 156 159 163 167 175 179 175 155 151 153 161 167 170 175 178 169 154 157 161 158 163 163 165 163 164 175 171 172 183 175 157 147 143 134 128 124 120 119 117 117 120 128 139 147 149 144 144 149 152 154 153 151 151 151 151 150 148 148 144 134 117
228 204 211 235 235 239 238 236 226 217 212 206 158 144 184 222 199 135 272 286 331 341 22 344 313 262 257 109 145 182 165 149 154 153 149 150 150 153 156 163 167 167 165 152 155 158 156 162 167 174 174 161 154 159 161 160 165 169 170 166 170 176 166 171 173 160 149 139 131 125 122 121 118 115 113 115 118 127 137 142 145 142 140 143 149 156 158 160 161 162 164 162 163 160 158 147 132
222 215 221 234 233 237 236 233 219 215 221 193 149 150 180 215 179 129 278 275 342 1 9 5 270 257 248 159 168 173 171 163 159 153 151 152 151 152 153 156 154 154 156 153 160 160 159 162 164 170 163 154 158 161 162 165 170 173 171 171 176 170 160 166 164 154 145 135 128 122 117 116 115 112 112 116 117 125 135 141 143 142 139 139 146 158 167 175 178 179 181 182 185 180 181 183 182
213 218 223 237 233 229 232 232 219 218 213 170 150 154 179 190 173 163 317 315 355 15 302 155 217 274 243 270 103 160 186 178 162 156 153 155 153 153 154 155 154 155 156 158 164 162 165 167 164 161 155 157 163 162 167 173 175 174 170 172 177 166 157 160 159 154 145 138 128 119 115 112 109 109 108 113 118 124 134 143 146 145 143 143 147 156 167 179 190 194 198 199 203 209 215 236 256
205 218 224 236 235 227 225 226 223 219 183 139 163 180 200 174 149 240 35 318 327 185 265 129 190 272 8 353 57 157 204 191 167 158 155 155 155 155 155 155 154 158 162 164 167 167 168 167 162 156 156 164 166 167 171 176 180 177 172 174 180 166 155 159 159 155 147 138 127 122 118 109 103 104 105 108 117 124 134 144 149 150 149 150 151 155 160 168 183 193 202 210 216 225 235 252 268
194 214 227 231 232 229 224 219 224 218 155 128 186 213 246 202 140 162 154 254 278 212 213 201 201 215 257 37 107 178 222 194 173 161 160 158 157 160 160 159 159 166 170 168 170 171 170 166 162 158 164 168 168 173 173 176 178 178 179 178 187 169 155 162 159 155 147 136 129 127 117 109 103 98 99 105 112 120 132 142 149 154 153 156 157 158 162 166 175 184 200 213 224 235 246 264 282
190 209 225 228 232 229 229 221 209 179 142 158 211 220 261 257 199 165 198 231 247 230 206 204 210 208 220 162 155 213 230 195 180 167 167 165 165 166 165 166 168 173 172 172 174 172 168 166 164 163 169 170 171 176 175 176 175 178 181 177 189 176 162 165 159 153 143 135 133 130 119 113 103 90 89 100 108 116 128 138 146 152 155 160 162 166 170 174 181 192 208 221 236 249 262 278 306
203 214 223 228 232 230 232 220 180 157 158 175 216 226 247 261 255 211 245 247 230 241 226 205 212 198 207 190 177 217 228 200 185 173 172 171 170 170 169 174 175 175 173 173 176 171 167 168 166 165 171 174 174 176 176 175 175 178 178 176 190 183 165 162 157 149 140 143 141 130 113 103 96 86 81 89 94 99 115 128 133 142 151 158 164 171 175 183 194 207 223 234 253 286 312 256 275
212 218 228 227 228 234 229 209 180 178 181 189 219 222 229 251 259 240 255 263 243 253 253 224 235 204 186 192 186 209 220 198 186 178 177 174 175 178 176 179 180 175 172 172 175 170 168 171 165 166 174 177 177 178 178 177 175 176 176 182 186 182 169 159 157 155 154 154 142 123 108 100 101 101 89 80 78 79 92 109 116 124 131 138 144 146 151 165 172 224 253 239 270 344 290 242 243
212 219 233 226 226 234 218 202 191 182 189 214 224 210 225 242 246 239 252 262 244 251 254 247 272 223 185 195 191 204 210 191 185 182 180 179 182 186 182 182 178 173 173 171 172 170 172 175 165 168 176 177 180 180 180 180 177 177 179 185 186 182 173 162 163 163 158 147 133 123 121 125 123 119 111 97 98 99 90 98 108 112 111 116 112 107 108 106 106 86 11 95 126 186 224 245 249
217 222 231 232 232 230 212 210 199 179 188 215 219 212 229 232 227 231 239 249 252 258 244 237 280 249 196 202 195 200 199 185 186 185 181 185 186 185 182 178 174 178 179 171 170 173 176 177 167 170 177 178 182 183 184 183 181 182 183 190 189 177 165 165 168 163 156 143 137 139 134 135 138 139 136 136 140 137 133 114 111 106 101 100 99 102 118 98 102 131 144 141 163 203 248 282 280
222 223 226 232 233 225 215 214 194 181 190 204 214 220 223 215 217 226 230 240 253 267 209 224 266 247 206 200 201 204 195 186 190 187 184 188 187 183 181 178 182 189 185 171 170 174 177 179 171 170 177 180 182 185 186 185 186 186 190 196 187 172 167 169 168 162 160 152 148 153 151 162 167 139 131 151 151 141 132 115 104 100 97 91 96 110 109 78 85 138 143 142 146 202 256 293 309
220 227 222 224 224 220 222 216 194 191 201 208 215 217 209 209 221 224 226 236 241 239 210 232 251 235 211 200 207 208 194 188 191 188 186 190 190 184 183 186 194 197 188 174 171 176 180 180 174 172 177 181 182 185 184 186 189 190 198 196 181 177 175 169 169 164 163 161 161 170 174 184 191 175 179 186 149 138 131 112 118 110 104 98 99 106 86 56 54 3 3 355 326 278 291 314 331
218 229 225 217 216 217 222 219 204 200 207 212 213 216 216 218 227 225 225 232 231 225 223 231 237 226 212 202 207 203 188 187 191 189 186 190 192 186 187 197 200 196 187 178 173 178 181 178 178 177 179 180 182 182 181 186 190 195 200 190 176 176 171 171 172 165 168 176 185 189 185 189 190 191 192 183 162 149 146 125 136 129 123 119 98 96 82 58 39 3 1 354 341 334 327 339 343
213 219 221 212 211 212 215 215 207 203 205 208 211 223 227 218 221 226 225 229 225 218 223 226 226 219 205 197 206 203 187 186 190 188 187 190 192 187 192 202 201 189 182 178 175 178 181 179 179 183 183 178 179 179 180 188 193 198 196 180 173 168 166 176 172 171 182 187 198 199 196 199 193 190 183 171 163 141 138 135 144 143 132 114 81 77 64 59 46 3 1 1 350 340 336 347 348
212 213 215 213 210 206 209 213 208 205 206 208 214 225 224 208 207 223 218 218 214 210 220 223 219 214 200 192 200 201 188 188 191 188 188 190 191 187 193 201 196 182 179 179 178 179 181 180 178 187 186 175 177 181 183 190 195 200 191 171 166 164 170 179 176 184 191 193 204 204 203 203 193 181 171 168 160 148 149 147 152 143 114 93 84 77 61 55 48 10 352 335 333 331 326 337 342
205 203 207 209 208 204 209 217 212 208 209 207 216 228 224 212 215 225 211 202 205 211 218 217 213 207 194 188 190 191 189 190 191 191 191 190 191 187 193 199 190 179 182 178 180 183 181 178 179 186 184 175 177 181 186 192 197 199 185 167 169 174 178 181 188 195 194 201 209 209 212 204 188 171 161 163 162 161 166 161 159 141 118 119 108 77 54 41 17 344 329 320 322 324 322 330 337
191 190 201 203 205 212 209 215 212 209 211 200 208 230 227 220 218 222 214 199 202 209 212 208 204 198 189 186 186 186 189 191 191 194 194 192 191 189 194 197 186 180 182 176 181 184 178 176 179 183 181 176 177 180 186 191 194 196 183 173 181 185 182 186 197 200 196 205 211 212 216 205 185 167 155 158 167 174 178 175 153 138 148 137 105 44 26 21 11 337 331 336 337 338 331 331 337
194 190 208 206 205 220 209 210 212 210 213 193 193 229 230 222 216 213 207 192 189 199 207 204 195 191 188 186 187 187 190 194 194 196 195 193 192 189 191 192 184 180 179 177 181 181 177 176 180 183 179 175 178 181 185 187 189 191 186 183 189 190 186 190 197 195 192 196 209 216 216 210 186 168 166 166 172 176 171 177 154 148 168 137 51 11 6 1 354 334 338 343 340 341 331 328 334
197 191 210 213 212 219 203 202 206 206 208 191 194 237 238 233 218 200 192 185 187 201 207 202 192 189 189 186 188 187 191 198 197 196 195 192 191 188 188 188 184 179 177 179 178 178 181 181 183 183 180 177 178 182 186 189 189 190 192 188 189 192 189 191 193 188 187 193 208 217 216 207 184 175 183 176 172 164 160 192 189 187 211 216 11 1 348 331 321 321 332 332 326 332 329 336 342
195 195 205 212 219 221 201 197 200 201 197 187 202 237 238 248 226 182 178 182 187 203 206 201 195 190 189 187 188 188 193 199 197 197 196 192 190 186 185 187 185 180 181 182 176 177 182 185 186 182 182 182 178 181 189 192 191 192 194 189 188 193 189 188 191 185 188 200 208 214 211 192 173 177 184 181 175 165 176 221 221 216 249 288 351 351 338 323 318 319 321 315 307 316 327 337 334
199 205 209 208 213 223 206 195 198 200 192 188 209 231 236 246 212 163 172 181 184 201 207 203 199 194 191 188 187 188 194 199 200 201 197 193 192 187 184 186 185 183 184 185 179 180 183 185 186 182 183 184 179 182 189 191 195 195 193 192 190 191 191 191 191 188 193 204 205 211 206 174 162 172 180 182 174 169 190 230 238 233 264 310 336 334 329 319 318 318 313 304 295 300 315 315 309
195 206 215 213 211 216 208 194 195 198 197 199 211 227 240 238 186 169 180 181 187 202 208 207 206 200 194 191 188 187 195 202 201 199 196 193 192 189 186 185 186 186 188 189 184 183 187 185 182 184 184 184 187 190 191 190 196 199 192 191 192 192 198 197 190 187 195 200 197 203 196 168 166 170 180 185 180 184 194 227 249 253 274 310 324 320 318 312 313 308 300 294 286 288 286 273 261
195 200 209 214 212 213 210 198 190 193 198 207 211 223 232 225 187 185 186 183 194 205 210 213 212 207 196 192 191 187 196 203 199 198 199 196 195 194 191 189 188 189 191 191 187 184 187 185 182 187 188 187 194 199 199 191 193 201 194 190 194 197 202 202 193 187 196 198 192 199 193 174 176 175 181 190 193 201 201 226 255 271 288 303 309 313 315 310 307 298 293 292 288 288 277 265 187
205 204 207 214 213 214 213 204 187 189 195 208 214 221 225 220 206 193 185 186 199 207 211 215 214 210 201 195 193 189 195 204 204 202 202 202 205 204 200 198 197 198 196 191 192 189 184 185 186 192 193 192 196 200 198 188 187 199 196 192 198 202 207 207 196 187 199 202 191 190 182 174 182 183 188 194 201 209 210 238 263 280 292 299 303 311 312 308 306 300 299 300 299 302 274 224 148
225 215 212 216 215 212 208 198 182 187 194 207 215 223 224 221 217 204 186 185 199 209 209 209 210 209 204 199 195 191 192 202 208 202 198 205 209 209 209 208 204 204 198 191 197 194 184 189 196 198 196 195 200 200 193 185 187 196 194 195 204 206 209 208 197 194 205 208 196 188 179 180 192 198 201 203 209 215 232 257 278 295 305 309 311 313 309 305 305 303 304 309 302 309 170 149 147
242 222 212 212 214 208 196 187 176 185 198 210 215 224 227 222 220 212 196 190 199 207 207 208 210 209 205 201 197 191 187 196 205 199 198 206 207 207 213 214 212 209 199 194 199 193 185 193 199 201 200 199 202 198 189 182 185 192 193 198 204 201 200 200 201 203 206 205 203 200 191 196 201 202 204 207 217 233 264 285 306 318 318 318 316 314 311 306 302 297 295 90 127 125 125 159 164
230 213 206 204 198 189 182 180 177 184 202 214 212 221 228 224 221 215 206 203 205 205 208 213 212 208 204 201 196 189 187 193 199 198 199 205 207 207 212 214 215 213 202 198 197 187 185 194 195 199 204 202 198 191 186 182 182 191 197 198 198 198 199 202 207 210 206 195 193 201 198 197 196 194 202 218 244 269 293 312 324 325 321 318 316 312 310 305 291 193 133 126 126 123 130 175 178
221 207 204 205 195 191 187 186 185 188 205 223 221 221 226 221 218 218 213 212 212 208 210 215 213 210 205 201 195 188 193 199 198 200 202 203 206 209 209 208 208 207 200 201 198 186 188 196 197 203 205 200 195 189 187 187 187 193 196 196 200 203 206 210 210 209 203 184 181 196 203 194 197 206 225 246 271 299 324 334 329 326 324 320 314 309 308 239 143 128 127 129 131 135 155 174 175
218 220 219 216 202 200 198 184 181 189 203 219 225 222 226 216 212 216 214 213 216 211 209 212 211 211 207 200 195 192 198 203 202 202 203 204 207 207 204 201 199 194 191 198 198 188 191 198 200 207 204 195 195 191 191 195 194 195 197 200 203 201 205 210 206 200 190 180 181 194 201 196 212 246 263 264 292 324 341 338 331 330 327 322 315 167 137 134 128 124 129 129 130 136 150 159 158
216 218 230 238 207 198 199 175 170 185 204 203 207 220 227 212 211 214 207 207 212 210 209 210 208 207 206 201 197 197 200 206 207 203 202 205 205 201 195 192 189 187 190 199 200 191 192 199 200 204 202 195 195 194 198 203 201 201 204 208 208 205 206 205 201 196 189 188 189 193 203 210 229 255 264 281 318 340 341 336 335 332 327 333 139 139 133 129 125 129 134 127 129 131 132 142 139
220 202 210 237 209 193 194 177 175 198 211 197 199 222 237 210 211 213 206 205 205 207 209 210 208 204 201 201 199 199 201 205 208 204 203 202 200 196 189 184 185 191 198 202 202 194 192 200 199 198 199 196 197 198 201 207 205 204 206 211 216 213 207 204 202 200 197 198 198 196 207 223 238 257 278 304 327 338 336 334 330 325 316 144 141 135 129 129 130 134 134 127 132 128 124 133 131
220 192 191 209 209 202 194 184 191 210 212 195 193 213 240 229 212 204 203 206 203 206 208 207 206 201 197 199 200 200 200 202 203 202 202 199 199 195 181 179 185 194 199 197 201 198 187 191 195 196 200 197 197 201 201 203 204 202 203 206 206 201 202 205 206 204 202 202 201 201 210 229 249 276 308 321 331 333 330 327 316 282 157 148 139 132 128 130 132 132 132 127 126 123 121 129 127
213 186 182 197 205 209 200 193 205 211 209 205 195 203 230 240 218 194 196 203 205 207 205 201 200 197 196 199 200 199 198 201 202 202 203 200 200 195 180 182 187 190 198 197 199 198 182 183 192 194 197 196 197 200 199 198 201 201 202 201 198 197 199 201 205 206 202 199 198 205 217 235 262 307 337 332 334 327 319 315 288 177 157 147 136 133 131 131 132 130 129 123 119 118 116 118 115
201 179 176 181 190 203 203 202 207 206 210 216 203 198 215 235 218 193 194 203 209 208 201 197 196 195 198 199 198 198 197 201 203 204 206 200 197 190 181 190 193 190 202 199 188 188 182 183 192 193 194 196 196 199 199 196 198 199 197 201 205 204 198 195 201 203 200 195 192 205 227 249 287 329 345 325 323 318 310 296 210 169 153 142 135 134 133 131 129 127 124 120 117 115 111 107 104
194 181 176 167 173 191 199 207 209 203 214 223 212 200 208 233 219 200 204 210 210 203 196 196 194 197 201 199 196 195 195 198 201 203 206 201 194 187 182 193 198 195 204 200 185 187 187 187 193 194 194 195 195 198 200 195 195 197 199 206 211 206 199 198 199 198 197 193 190 207 235 263 308 333 332 312 314 310 292 227 176 159 146 140 138 136 133 130 128 127 123 120 116 111 107 103 100
194 189 184 168 168 178 185 199 207 211 217 221 215 204 207 227 225 207 210 213 207 200 199 195 191 196 200 198 195 193 192 194 197 201 202 198 191 184 182 191 197 196 201 201 193 189 190 192 194 193 192 194 195 198 199 194 194 197 199 205 206 203 202 199 197 196 194 191 195 208 236 281 315 328 325 314 309 296 216 176 160 150 145 142 139 135 133 132 130 128 125 121 116 111 108 104 102
191 194 193 183 178 176 186 191 196 212 220 216 210 204 209 229 232 222 216 206 198 198 200 194 191 196 199 197 194 190 190 190 193 200 201 198 193 184 181 187 194 197 198 202 201 194 191 194 194 191 191 193 196 197 196 194 195 196 198 197 193 195 201 196 191 189 185 185 194 202 245 291 306 317 319 314 297 209 165 160 153 148 146 142 138 137 135 132 129 126 124 120 116 112 109 103 100
187 193 193 192 186 177 187 189 192 208 207 193 201 201 217 234 230 228 221 200 193 198 198 197 197 198 197 195 192 187 188 187 190 198 199 199 198 189 182 185 193 196 197 201 202 196 189 190 191 191 191 193 198 199 197 197 199 199 199 194 187 191 199 197 190 185 182 187 195 205 257 289 288 305 312 302 194 163 159 156 151 146 144 140 138 138 134 128 125 125 124 120 116 111 105 99 96
189 196 197 200 196 182 188 191 194 201 184 170 188 194 220 229 223 230 217 196 191 195 195 199 202 201 198 193 189 186 187 187 189 194 197 199 201 195 187 189 193 194 197 202 199 193 188 187 189 190 191 194 198 200 200 201 202 202 199 191 185 191 198 197 192 188 189 197 206 221 261 277 278 302 306 248 169 158 157 155 149 145 144 142 137 136 132 126 124 125 124 118 111 105 101 99 98
190 197 203 207 204 192 189 200 205 202 187 174 185 201 222 213 62 85 202 192 191 190 192 196 196 196 194 189 187 186 187 190 189 191 196 201 203 200 192 194 197 194 197 201 196 192 190 187 187 190 193 196 199 201 202 201 202 200 194 188 186 191 196 197 195 191 193 205 213 228 259 268 281 301 280 188 164 158 157 154 150 147 146 142 136 134 131 125 124 124 121 113 105 102 101 101 100
183 197 205 204 209 207 189 125 63 180 201 185 189 212 219 205 183 165 175 192 193 187 185 187 185 184 184 184 187 187 189 192 189 188 195 200 204 204 196 194 198 198 199 200 196 194 192 189 190 192 195 198 201 204 203 201 201 196 190 187 188 192 196 198 199 196 201 213 215 230 260 270 289 294 212 171 164 162 158 154 153 149 146 141 137 136 130 125 125 121 116 109 105 105 103 102 102
186 193 200 198 211 219 206 188 152 176 210 198 195 214 218 218 206 164 172 189 188 187 186 184 184 182 183 185 187 189 191 192 189 187 191 198 204 206 199 194 197 200 202 201 197 195 193 193 195 196 197 198 202 205 203 202 200 194 190 189 189 193 197 199 199 200 209 215 214 234 264 277 291 266 181 167 166 164 159 156 154 150 147 143 139 137 130 125 123 118 115 111 108 107 105 106 105
214 197 194 196 205 206 202 203 190 191 210 209 204 216 223 222 205 162 179 190 184 186 190 189 188 185 187 191 191 193 192 189 189 189 190 194 202 205 199 193 194 199 204 203 198 197 196 196 197 197 199 200 204 205 202 201 198 193 193 192 190 192 197 199 199 204 212 214 217 243 266 279 281 209 173 167 166 163 160 158 155 153 150 144 139 136 130 126 122 119 117 114 112 111 111 109 104
226 212 198 197 202 203 202 206 202 197 204 214 211 213 222 225 213 183 184 188 184 186 191 194 194 189 191 196 193 191 188 185 187 190 189 191 199 203 198 193 191 196 203 202 196 195 196 196 196 195 198 201 204 206 202 198 194 194 198 199 194 192 196 199 203 209 211 211 222 248 266 277 252 184 171 167 165 163 163 162 158 154 149 142 140 136 131 126 124 124 122 118 118 118 114 110 102
207 211 197 194 198 203 205 210 219 210 205 210 211 218 224 213 207 201 187 178 180 186 192 198 199 197 199 202 197 187 183 184 186 189 187 188 195 198 196 194 192 195 202 201 196 192 190 194 195 193 197 202 202 204 202 196 192 195 201 202 197 194 196 199 204 209 208 211 229 250 263 267 217 179 171 168 168 166 166 165 159 153 149 144 142 138 131 128 128 130 129 126 125 121 117 110 100
195 207 196 195 198 197 201 206 211 216 219 215 212 229 230 168 175 197 193 189 192 193 196 201 205 206 204 202 195 185 183 185 186 185 183 185 192 193 192 192 193 197 200 199 198 194 188 193 194 192 198 202 201 201 200 195 193 198 201 200 196 194 196 201 205 206 205 215 238 249 257 249 196 176 173 172 173 171 168 166 160 156 154 148 144 140 134 132 134 137 137 134 130 125 120 111 102